�N����,����,�~����,�C��,���x,�C��,����,���ϕ���,�ő�u�ԕ���,�ő厞����,���˗�,�I�_���x,�n�����x,�ő啗���N��,DTYPE
"18/09/05","00:10",0.0,24.3,93.6,993.2,269.7,0.5,1.1,354.4,0.00,23.2,24.8,"00:00:08",1
"18/09/05","00:20",0.0,24.3,93.9,993.2,317.8,0.2,0.6,271.0,0.00,23.3,24.9,"00:10:16",1
"18/09/05","00:30",0.0,24.3,94.0,993.4,324.7,0.5,1.3,354.5,0.00,23.3,24.9,"00:29:28",1
"18/09/05","00:40",0.0,24.2,94.2,993.0,342.2,0.7,1.6,347.1,0.00,23.2,25.0,"00:30:24",1
"18/09/05","00:50",0.0,24.3,94.2,993.2,248.6,0.6,1.1,220.0,0.00,23.3,24.9,"00:47:52",1
"18/09/05","01:00",0.0,24.1,94.4,993.2,321.9,0.7,1.1,333.1,0.00,23.2,25.0,"00:53:12",1
"18/09/05","01:10",0.0,24.2,94.6,993.4,310.2,0.6,1.9,349.6,0.00,23.3,25.0,"01:09:20",1
"18/09/05","01:20",0.0,24.2,94.6,993.4,356.9,0.7,1.3,316.0,0.00,23.3,25.0,"01:18:00",1
"18/09/05","01:30",0.0,24.2,94.8,993.4,231.6,0.5,1.1,114.5,0.00,23.4,24.8,"01:23:52",1
"18/09/05","01:40",0.0,24.2,94.8,993.7,242.0,0.5,1.0,140.3,0.00,23.4,24.9,"01:34:32",1
"18/09/05","01:50",0.0,24.1,94.8,993.7,17.7,0.5,1.0,346.3,0.00,23.3,24.9,"01:44:24",1
"18/09/05","02:00",0.0,23.9,94.8,993.2,354.7,0.8,1.9,337.6,0.00,23.1,24.7,"01:54:32",1
"18/09/05","02:10",0.0,23.5,94.9,993.4,317.8,0.6,1.7,335.5,0.00,22.7,24.9,"02:02:24",1
"18/09/05","02:20",0.0,22.8,94.7,993.4,283.3,0.6,1.3,312.5,0.00,21.9,24.9,"02:15:44",1
"18/09/05","02:30",0.0,22.5,95.3,994.1,309.2,1.0,1.8,335.0,0.00,21.8,24.9,"02:27:12",1
"18/09/05","02:40",0.0,22.3,95.0,994.1,306.3,1.0,2.0,315.5,0.00,21.5,24.7,"02:39:36",1
"18/09/05","02:50",0.0,22.0,95.3,994.6,287.9,0.7,1.7,309.6,0.00,21.3,24.7,"02:40:32",1
"18/09/05","03:00",0.0,21.9,95.4,994.6,337.5,1.1,2.0,337.7,0.00,21.2,24.8,"02:58:16",1
"18/09/05","03:10",0.0,21.8,95.4,994.6,311.1,1.0,1.9,313.9,0.00,21.1,24.5,"03:05:28",1
"18/09/05","03:20",0.0,21.7,95.6,994.6,326.8,1.6,2.4,333.6,0.00,21.0,24.7,"03:12:00",1
"18/09/05","03:30",0.0,21.7,95.5,994.4,334.5,1.5,2.1,342.2,0.00,21.0,24.5,"03:28:48",1
"18/09/05","03:40",0.0,21.7,95.5,994.8,316.9,1.6,2.6,344.0,0.00,21.0,24.6,"03:31:44",1
"18/09/05","03:50",0.0,21.7,95.4,994.6,316.7,0.3,1.2,300.7,0.00,21.0,24.6,"03:40:08",1
"18/09/05","04:00",0.0,21.6,95.4,994.8,286.4,0.7,1.6,319.4,0.00,20.9,24.5,"03:58:16",1
"18/09/05","04:10",0.0,21.5,95.8,995.3,328.0,0.5,1.1,281.5,0.00,20.8,24.4,"04:00:56",1
"18/09/05","04:20",0.0,21.4,95.7,994.8,314.9,1.6,2.2,315.7,0.00,20.7,24.4,"04:18:40",1
"18/09/05","04:30",0.0,21.4,95.8,994.8,315.3,1.3,2.2,325.7,0.00,20.7,24.4,"04:29:12",1
"18/09/05","04:40",0.0,21.4,95.7,995.8,324.6,1.5,2.2,318.9,0.00,20.7,24.4,"04:32:24",1
"18/09/05","04:50",0.0,21.4,95.7,995.6,323.4,1.6,2.5,305.8,0.00,20.7,24.4,"04:48:24",1
"18/09/05","05:00",0.0,21.3,95.4,995.3,331.0,2.0,3.9,318.9,0.00,20.6,24.2,"04:52:32",1
"18/09/05","05:10",0.0,21.4,95.5,995.6,328.3,2.2,3.2,320.7,0.00,20.7,24.3,"05:08:56",1
"18/09/05","05:20",0.0,21.4,95.3,995.6,306.3,1.6,2.7,321.6,0.00,20.7,24.3,"05:15:28",1
"18/09/05","05:30",0.0,21.3,95.2,995.8,326.9,1.8,3.2,344.7,0.00,20.5,24.1,"05:27:04",1
"18/09/05","05:40",0.0,21.3,95.2,996.3,337.1,1.2,2.0,334.0,0.00,20.5,24.2,"05:30:32",1
"18/09/05","05:50",0.0,21.2,95.3,996.0,337.9,1.3,3.2,320.4,0.00,20.5,24.1,"05:48:40",1
"18/09/05","06:00",0.0,21.4,95.2,996.5,325.5,2.6,3.7,342.9,0.00,20.6,24.2,"05:59:12",1
"18/09/05","06:10",0.0,21.5,94.9,996.7,325.6,2.2,3.6,335.0,0.00,20.7,24.0,"06:03:20",1
"18/09/05","06:20",0.0,21.5,94.9,996.3,320.4,1.5,2.6,337.1,0.00,20.7,24.1,"06:19:04",1
"18/09/05","06:30",0.0,21.7,94.7,996.7,319.7,1.7,2.6,329.7,0.00,20.9,24.1,"06:20:32",1
"18/09/05","06:40",0.0,21.9,94.7,996.7,323.0,1.5,2.5,336.8,0.02,21.1,23.9,"06:30:40",1
"18/09/05","06:50",0.0,22.7,94.1,997.2,350.0,0.8,2.4,335.6,0.03,21.7,24.1,"06:42:08",1
"18/09/05","07:00",0.0,23.0,93.0,997.0,331.4,0.8,1.7,356.8,0.03,21.8,24.1,"06:59:20",1
"18/09/05","07:10",0.0,23.5,92.2,997.0,341.9,1.1,1.8,346.8,0.05,22.2,24.2,"07:04:16",1
"18/09/05","07:20",0.0,23.6,90.0,997.2,282.8,0.8,1.9,227.3,0.07,21.9,24.2,"07:19:12",1
"18/09/05","07:30",0.0,23.7,89.9,997.4,250.8,0.6,1.7,238.9,0.07,22.0,24.2,"07:23:36",1
"18/09/05","07:40",0.0,23.7,90.5,997.4,234.4,0.6,1.7,232.9,0.07,22.1,24.4,"07:36:08",1
"18/09/05","07:50",0.0,23.8,89.3,997.2,238.0,0.7,1.4,233.7,0.06,22.0,24.2,"07:45:36",1
"18/09/05","08:00",0.0,24.5,88.0,997.4,310.7,0.5,1.2,317.2,0.12,22.4,24.3,"07:55:04",1
"18/09/05","08:10",0.0,24.7,87.1,997.2,331.9,0.6,1.7,326.2,0.16,22.4,24.2,"08:03:12",1
"18/09/05","08:20",0.0,24.5,87.3,997.4,335.3,1.1,2.2,339.8,0.15,22.3,24.7,"08:12:56",1
"18/09/05","08:30",0.0,25.1,84.9,997.0,270.7,0.3,1.0,323.2,0.18,22.4,24.7,"08:20:48",1
"18/09/05","08:40",0.0,25.9,83.0,997.2,260.4,0.2,0.9,13.9,0.28,22.8,24.7,"08:39:20",1
"18/09/05","08:50",0.0,25.9,82.0,997.4,340.7,0.6,1.6,5.2,0.30,22.6,24.9,"08:44:08",1
"18/09/05","09:00",0.0,26.4,79.5,997.2,181.2,0.6,1.4,212.4,0.31,22.6,25.1,"08:52:08",1
"18/09/05","09:10",0.0,26.6,80.3,997.2,199.1,0.5,1.3,197.8,0.26,23.0,25.2,"09:04:16",1
"18/09/05","09:20",0.0,27.1,77.9,997.7,157.1,0.7,2.0,117.7,0.35,23.0,25.4,"09:15:20",1
"18/09/05","09:30",0.0,27.1,79.8,998.2,123.3,0.8,2.5,112.2,0.35,23.3,25.6,"09:28:08",1
"18/09/05","09:40",0.0,27.5,78.0,998.4,148.8,1.1,3.3,135.5,0.40,23.4,25.8,"09:32:00",1
"18/09/05","09:50",0.0,27.6,71.2,998.4,287.5,1.0,3.3,338.2,0.31,22.0,25.9,"09:45:04",1
"18/09/05","10:00",0.0,28.2,69.1,998.2,209.1,1.7,4.3,256.8,0.41,22.0,26.1,"09:50:24",1
"18/09/05","10:10",0.0,28.1,63.0,998.2,232.6,1.7,5.0,244.7,0.46,20.4,26.4,"10:08:56",1
"18/09/05","10:20",0.0,28.2,67.3,997.9,272.7,1.5,4.9,232.5,0.41,21.6,26.4,"10:10:16",1
"18/09/05","10:30",0.0,28.3,66.9,998.2,308.7,1.1,2.8,333.9,0.28,21.6,26.5,"10:21:28",1
"18/09/05","10:40",0.0,28.4,65.9,997.4,276.7,1.2,2.9,249.7,0.27,21.5,26.8,"10:32:24",1
"18/09/05","10:50",0.0,28.2,64.6,997.9,323.3,1.7,3.7,339.2,0.35,20.9,26.7,"10:47:04",1
"18/09/05","11:00",0.0,28.5,65.7,997.4,334.3,2.5,5.7,351.1,0.37,21.5,26.9,"10:58:32",1
"18/09/05","11:10",0.0,27.9,65.2,997.0,327.7,2.0,4.8,344.5,0.23,20.8,26.9,"11:06:16",1
"18/09/05","11:20",0.0,28.2,67.2,997.0,318.7,1.6,4.3,346.0,0.16,21.6,27.1,"11:13:52",1
"18/09/05","11:30",0.0,28.8,64.7,996.7,251.6,1.6,4.1,349.4,0.37,21.5,27.1,"11:20:24",1
"18/09/05","11:40",0.0,28.5,63.6,997.0,219.2,2.3,4.7,225.4,0.20,21.0,27.2,"11:38:40",1
"18/09/05","11:50",0.0,29.4,61.2,997.2,229.3,1.7,4.8,231.7,0.43,21.2,27.3,"11:43:28",1
"18/09/05","12:00",0.0,29.5,60.9,997.4,208.8,1.2,3.1,197.2,0.48,21.2,27.3,"11:52:48",1
"18/09/05","12:10",0.0,29.0,62.9,997.7,202.4,1.2,3.9,203.9,0.24,21.3,27.4,"12:05:36",1
"18/09/05","12:20",0.0,29.5,63.1,997.2,248.3,1.2,3.3,321.6,0.32,21.8,27.6,"12:18:48",1
"18/09/05","12:30",0.0,30.5,59.3,997.2,213.9,1.6,5.1,228.3,0.52,21.7,27.6,"12:28:08",1
"18/09/05","12:40",0.0,29.8,57.7,997.4,212.5,2.7,6.7,196.7,0.50,20.6,27.9,"12:35:52",1
"18/09/05","12:50",0.0,30.6,57.4,997.2,212.4,2.8,5.4,206.8,0.48,21.3,28.0,"12:46:00",1
"18/09/05","13:00",0.0,30.8,58.1,997.4,260.1,2.1,5.8,214.2,0.57,21.7,28.0,"12:50:32",1
"18/09/05","13:10",0.0,30.6,58.9,997.7,233.1,2.0,5.4,207.5,0.55,21.7,28.3,"13:04:08",1
"18/09/05","13:20",0.0,30.6,57.9,997.4,297.1,1.3,4.7,340.0,0.58,21.4,28.6,"13:13:52",1
"18/09/05","13:30",0.0,30.6,54.7,997.9,339.1,2.1,4.2,349.9,0.55,20.5,28.6,"13:24:24",1
"18/09/05","13:40",0.0,31.0,55.1,997.9,302.0,1.8,4.4,3.6,0.53,21.0,28.7,"13:33:04",1
"18/09/05","13:50",0.0,30.9,54.9,997.4,289.1,1.3,3.4,354.4,0.45,20.8,28.9,"13:46:48",1
"18/09/05","14:00",0.0,30.9,52.0,997.9,308.5,1.3,4.1,335.5,0.49,19.9,29.1,"13:54:56",1
"18/09/05","14:10",0.0,31.2,51.3,997.7,301.3,1.3,4.2,351.9,0.48,20.0,29.2,"14:04:32",1
"18/09/05","14:20",0.0,30.9,52.1,997.9,311.4,1.7,5.4,341.6,0.46,20.0,29.2,"14:15:36",1
"18/09/05","14:30",0.0,30.8,51.5,997.4,308.3,2.0,4.2,320.0,0.39,19.7,29.4,"14:20:40",1
"18/09/05","14:40",0.0,30.4,50.9,997.4,312.3,1.5,5.4,344.0,0.33,19.1,29.2,"14:32:56",1
"18/09/05","14:50",0.0,30.4,50.6,997.2,316.6,1.6,4.9,352.3,0.29,19.0,29.4,"14:46:56",1
"18/09/05","15:00",0.0,30.6,49.4,997.0,304.1,1.2,4.2,324.7,0.35,18.8,29.2,"14:57:28",1
"18/09/05","15:10",0.0,30.3,51.6,997.0,286.1,1.3,2.8,219.4,0.31,19.3,29.2,"15:04:40",1
"18/09/05","15:20",0.0,30.2,50.8,997.2,256.5,1.3,4.0,226.6,0.33,18.9,29.3,"15:15:12",1
"18/09/05","15:30",0.0,30.8,52.6,997.2,264.1,1.0,4.0,225.9,0.33,20.0,29.2,"15:29:12",1
"18/09/05","15:40",0.0,30.5,49.7,997.4,284.7,1.2,2.2,273.3,0.28,18.8,29.1,"15:32:08",1
"18/09/05","15:50",0.0,30.3,53.2,997.0,255.5,1.0,2.6,238.4,0.22,19.8,29.3,"15:42:40",1
"18/09/05","16:00",0.0,30.6,51.5,997.0,265.7,1.1,2.5,224.9,0.21,19.5,29.3,"15:57:36",1
"18/09/05","16:10",0.0,30.0,52.5,996.5,257.2,1.3,3.7,226.9,0.10,19.3,29.2,"16:04:56",1
"18/09/05","16:20",0.0,29.5,56.3,996.0,258.2,1.1,3.3,258.7,0.06,19.9,29.1,"16:12:32",1
"18/09/05","16:30",0.0,29.4,55.2,995.8,234.5,2.0,5.1,212.1,0.06,19.5,28.9,"16:21:04",1
"18/09/05","16:40",0.0,29.5,55.1,995.8,230.9,1.7,5.5,223.7,0.09,19.6,28.8,"16:39:52",1
"18/09/05","16:50",0.0,29.5,55.0,996.3,256.3,1.5,4.5,221.0,0.07,19.6,28.8,"16:41:12",1
"18/09/05","17:00",0.0,28.9,55.5,996.0,279.7,0.8,2.0,243.7,0.03,19.1,28.7,"16:50:02",1
"18/09/05","17:10",0.0,28.7,55.5,996.3,260.4,1.0,2.1,242.3,0.03,19.0,28.4,"17:05:20",1
"18/09/05","17:20",0.0,28.6,57.1,995.8,275.9,0.7,1.2,332.4,0.03,19.3,28.4,"17:15:52",1
"18/09/05","17:30",0.0,28.9,57.0,996.0,281.0,0.7,1.4,269.7,0.06,19.6,28.3,"17:20:40",1
"18/09/05","17:40",0.0,28.7,54.3,996.5,276.2,1.0,2.2,233.7,0.04,18.6,28.2,"17:36:56",1
"18/09/05","17:50",0.0,28.4,55.6,996.0,288.4,1.0,2.1,251.9,0.02,18.7,28.1,"17:47:20",1
"18/09/05","18:00",0.0,27.8,57.3,996.7,292.1,0.7,1.8,342.8,0.00,18.6,28.0,"17:50:24",1
"18/09/05","18:10",0.0,27.2,62.2,997.0,329.2,1.1,2.2,329.8,0.00,19.4,27.9,"18:03:44",1
"18/09/05","18:20",0.0,26.3,65.7,997.2,303.5,0.8,1.9,323.8,0.00,19.4,27.8,"18:16:40",1
"18/09/05","18:30",0.0,25.6,69.4,997.4,307.6,0.8,2.1,330.4,0.00,19.6,27.7,"18:29:04",1
"18/09/05","18:40",0.0,25.0,72.1,997.7,333.7,1.3,2.4,333.0,0.00,19.7,27.7,"18:36:16",1
"18/09/05","18:50",0.0,24.7,73.1,997.9,326.5,1.6,2.8,352.1,0.00,19.6,27.5,"18:43:28",1
"18/09/05","19:00",0.0,24.4,74.6,997.7,330.1,1.6,2.6,332.7,0.00,19.6,27.3,"18:59:20",1
"18/09/05","19:10",0.0,24.2,74.8,998.2,321.3,1.5,2.7,330.9,0.00,19.5,27.0,"19:02:08",1
"18/09/05","19:20",0.0,23.9,76.0,998.4,289.9,0.8,1.4,307.0,0.00,19.5,27.1,"19:14:32",1
"18/09/05","19:30",0.0,23.7,77.3,998.4,309.6,1.1,2.0,324.1,0.00,19.5,27.0,"19:23:44",1
"18/09/05","19:40",0.0,23.5,77.9,998.6,285.3,0.8,1.1,313.1,0.00,19.5,27.1,"19:30:16",1
"18/09/05","19:50",0.0,23.5,77.9,998.9,289.4,1.2,3.3,335.2,0.00,19.5,26.6,"19:46:24",1
"18/09/05","20:00",0.0,23.4,78.2,998.9,298.0,1.1,1.7,314.7,0.00,19.4,26.7,"19:53:52",1
"18/09/05","20:10",0.0,23.2,78.6,999.6,286.5,0.7,1.4,309.2,0.00,19.3,26.6,"20:00:24",1
"18/09/05","20:20",0.0,22.9,79.5,999.6,267.9,0.7,1.3,265.8,0.00,19.2,26.5,"20:19:44",1
"18/09/05","20:30",0.0,23.1,79.1,999.3,314.8,1.6,2.5,323.0,0.00,19.3,26.5,"20:29:04",1
"18/09/05","20:40",0.0,23.1,78.8,999.6,331.4,2.0,3.3,344.3,0.00,19.3,26.2,"20:36:40",1
"18/09/05","20:50",0.0,23.0,78.2,1000.0,312.9,1.3,2.6,336.8,0.00,19.0,26.4,"20:40:24",1
"18/09/05","21:00",0.0,22.7,79.3,1000.0,294.0,0.8,1.2,314.5,0.00,19.0,26.1,"20:55:04",1
"18/09/05","21:10",0.0,22.4,80.0,999.8,304.8,0.8,1.1,333.2,0.00,18.8,26.1,"21:04:32",1
"18/09/05","21:20",0.0,22.2,81.9,1000.0,303.1,0.6,1.3,316.0,0.00,19.0,26.2,"21:17:44",1
"18/09/05","21:30",0.0,22.0,83.9,1000.0,270.2,0.7,1.1,243.3,0.00,19.2,25.9,"21:29:12",1
"18/09/05","21:40",0.0,21.9,84.5,1000.0,275.5,1.5,2.4,321.1,0.00,19.2,26.0,"21:38:32",1
"18/09/05","21:50",0.0,22.3,83.5,1000.3,328.9,1.7,2.4,321.3,0.00,19.4,25.9,"21:44:00",1
"18/09/05","22:00",0.0,22.1,84.0,1000.5,325.1,1.2,2.0,336.2,0.00,19.3,25.7,"21:52:24",1
"18/09/05","22:10",0.0,21.7,85.5,1000.0,292.7,0.8,1.3,317.7,0.00,19.2,25.7,"22:06:08",1
"18/09/05","22:20",0.0,21.8,85.1,1000.5,295.7,1.2,1.9,317.3,0.00,19.2,25.6,"22:19:36",1
"18/09/05","22:30",0.0,21.7,85.3,1000.3,321.5,1.3,2.1,337.3,0.00,19.2,25.3,"22:28:48",1
"18/09/05","22:40",0.0,21.4,86.5,1000.8,231.9,0.6,1.6,310.6,0.00,19.1,25.3,"22:30:08",1
"18/09/05","22:50",0.0,21.2,87.7,1000.5,234.2,0.6,1.6,305.6,0.00,19.1,25.2,"22:49:04",1
"18/09/05","23:00",0.0,21.4,88.3,1000.3,322.0,1.7,3.2,341.4,0.00,19.4,25.4,"22:57:28",1
"18/09/05","23:10",0.0,21.3,88.5,1000.5,317.8,1.3,2.2,340.8,0.00,19.4,25.3,"23:00:32",1
"18/09/05","23:20",0.0,21.2,89.0,1000.8,225.4,0.7,1.9,321.9,0.00,19.4,25.3,"23:10:02",1
"18/09/05","23:30",0.0,21.2,89.5,1000.8,322.6,1.3,1.8,326.4,0.00,19.4,25.1,"23:20:08",1
"18/09/05","23:40",0.0,21.1,89.8,1001.0,289.4,1.0,1.7,325.2,0.00,19.4,25.1,"23:39:36",1
"18/09/05","23:50",0.0,21.1,89.9,1000.8,311.1,0.8,1.9,319.2,0.00,19.4,24.9,"23:41:12",1
"18/09/05","24:00",0.0,21.0,90.4,1001.2,307.1,1.1,1.7,347.8,0.00,19.4,25.0,"23:50:02",1
